New Orleans Lakefront, LA

1:16 AM CST on November 15, 2019 (GMT -0600)
Lakefront

Weather History for KNEW - September, 2019

Change the Weather History Date:

Saturday, September 28, 2019

  Actual Average Record
Temperature  
Mean Temperature 87 °F 77 °F  
Max Temperature 95 °F 85 °F 96 °F (1953)
Min Temperature 79 °F 69 °F 51 °F (1975)
Degree Days  
Heating Degree Days 0 0  
Month to date heating degree days 0 0  
Since 1 July heating degree days 0 0  
Cooling Degree Days 22 12  
Month to date cooling degree days 576 420  
Year to date cooling degree days 3217 2666  
Growing Degree Days 34 (Base 50)    
Moisture  
Dew Point 73 °F    
Average Humidity 65    
Maximum Humidity 85    
Minimum Humidity 44    
Precipitation  
Precipitation 0.00 in 0.13 in 1.32 in (1946)
Month to date precipitation 0.19 4.72  
Year to date precipitation 46.95 48.93  
Snow  
Snow 0.00 in - - ()
Month to date snowfall 0.0  
Since 1 July snowfall 0.0  
Since 1 September snowfall 0.0  
Snow Depth 0.00 in    
Sea Level Pressure  
Sea Level Pressure 30.00 in    
Wind  
Wind Speed 10 mph (SE)    
Max Wind Speed 18 mph    
Max Gust Speed 24 mph    
Visibility 10 miles    
Events      
T = Trace of Precipitation, MM = Missing Value Source: NWS Daily Summary

Daily Weather History Graph

Daily Weather History Graph

Search for Another Location

Airport or City:

Astronomy

Sep. 28, 2019 Rise Set
Actual Time 6:51 AM CDT 6:49 PM CDT
Civil Twilight 6:27 AM CDT 7:13 PM CDT
Nautical Twilight 6:00 AM CDT 7:41 PM CDT
Astronomical Twilight 5:32 AM CDT 8:08 PM CDT
Moon 6:34 AM CDT (9/28) 7:12 PM CDT (9/28)
Length of Visible Light 12h 45m
Length of Day
11h 57m
Waning Crescent, 0% of the Moon is Illuminated
Sep 28
Waning Crescent
Sep 28
New
Oct 5
First Quarter
Oct 13
Full
Oct 21
Last Quarter

Hourly Weather History & Observations

Time (CDT) Temp. Heat Index Dew Point Humidity Pressure Visibility Wind Dir Wind Speed Gust Speed Precip Events Conditions
12:53 AM 80.1 °F 84.5 °F 73.9 °F 81% 29.93 in 10.0 mi SSE 8.1 mph - N/A   Clear
1:53 AM 80.1 °F 84.5 °F 73.9 °F 81% 29.93 in 10.0 mi SSE 8.1 mph - N/A   Clear
2:53 AM 80.1 °F 84.5 °F 73.9 °F 81% 29.93 in 10.0 mi SSE 6.9 mph - N/A   Clear
3:53 AM 80.1 °F 84.5 °F 73.9 °F 81% 29.94 in 10.0 mi SSE 5.8 mph - N/A   Clear
4:53 AM 79.0 °F - 75.0 °F 88% 29.95 in 10.0 mi SE 4.6 mph - N/A   Clear
5:53 AM 79.0 °F - 75.0 °F 88% 29.97 in 10.0 mi ESE 5.8 mph - N/A   Clear
6:53 AM 78.1 °F - 73.9 °F 87% 29.99 in 9.0 mi SE 4.6 mph - N/A   Clear
7:53 AM 80.1 °F 85.4 °F 75.9 °F 87% 30.01 in 9.0 mi SE 4.6 mph - N/A   Clear
8:53 AM 84.0 °F 91.9 °F 75.0 °F 74% 30.03 in 10.0 mi ESE 9.2 mph - N/A   Clear
9:53 AM 84.9 °F 91.4 °F 73.0 °F 67% 30.05 in 10.0 mi SE 9.2 mph - N/A   Clear
10:53 AM 87.1 °F 94.5 °F 73.0 °F 63% 30.06 in 10.0 mi SE 10.4 mph - N/A   Scattered Clouds
11:53 AM 87.1 °F 94.5 °F 73.0 °F 63% 30.06 in 10.0 mi East 9.2 mph - N/A   Scattered Clouds
12:53 PM 89.1 °F 95.0 °F 71.1 °F 55% 30.04 in 10.0 mi East 12.7 mph - N/A   Partly Cloudy
1:53 PM 89.1 °F 96.0 °F 72.0 °F 57% 30.03 in 10.0 mi East 13.8 mph - N/A   Mostly Cloudy
2:53 PM 89.1 °F 96.0 °F 72.0 °F 57% 30.01 in 10.0 mi ESE 12.7 mph - N/A   Scattered Clouds
3:53 PM 88.0 °F 95.6 °F 73.0 °F 61% 30.01 in 10.0 mi East 15.0 mph - N/A   Scattered Clouds
4:53 PM 87.1 °F 92.8 °F 71.1 °F 59% 30.00 in 10.0 mi ESE 15.0 mph - N/A   Clear
5:53 PM 86.0 °F 90.7 °F 70.0 °F 59% 30.00 in 10.0 mi SE 15.0 mph - N/A   Clear
6:53 PM 84.0 °F 88.4 °F 70.0 °F 63% 30.00 in 10.0 mi SE 9.2 mph - N/A   Clear
7:53 PM 82.9 °F 88.0 °F 72.0 °F 69% 30.01 in 10.0 mi SE 10.4 mph - N/A   Scattered Clouds
8:53 PM 82.0 °F 87.4 °F 73.0 °F 74% 30.02 in 10.0 mi ESE 9.2 mph - N/A   Clear
9:53 PM 82.0 °F 87.9 °F 73.9 °F 76% 30.04 in 10.0 mi ESE 9.2 mph - N/A   Partly Cloudy
10:53 PM 82.0 °F 87.9 °F 73.9 °F 76% 30.05 in 10.0 mi ESE 9.2 mph - N/A   Clear
11:53 PM 82.0 °F 87.9 °F 73.9 °F 76% 30.03 in 10.0 mi SE 8.1 mph - N/A   Clear